Regional Weather Roundup
Issued by NWS

Home | Current Version | Previous Version | Graphics & Text | Print | Product List | Glossary On
Versions: 1 2 3 4 5 6 7 8 9 10 11 12 13 14 15 16 17 18 19 20 21 22 23 24 25 26 27 28 29 30 31 32 33 34 35 36 37 38 39 40 41 42 43 44 45 46 47 48 49 50
000
ASUS43 KDMX 190706
RWRIA

WEATHER ROUNDUP FOR IOWA
NATIONAL WEATHER SERVICE DES MOINES IA
100 AM CST MON FEB 19 2018

NOTE: "FAIR" INDICATES FEW OR NO CLOUDS BELOW 12,000 FEET WITH NO
SIGNIFICANT WEATHER AND/OR OBSTRUCTIONS TO VISIBILITY.

* - THESE STATIONS ARE NOT NWS STATIONS...THUS NOT UNDER NWS
QUALITY CONTROL.  THEY ALSO DO NOT REPORT WEATHER SUCH
AS PRECIPITATION OR FOG.

IAZ001>003-012>014-020>022-031>034-043>046-190800-
   NORTHWEST IOWA

CITY           SKY/WX    TMP DP  RH WIND       PRES   REMARKS
CARROLL *      CLOUDY    36  34  93 NE3       29.67S
CHEROKEE *     CLOUDY    26  22  84 N21G28    29.71F WCI  12
DENISON *      CLOUDY    37  34  87 N5        29.67S WCI  34
LE MARS *      CLOUDY    25  21  86 N24G31    29.71F WCI   9
ORANGE CITY *  CLOUDY    25  21  86 NE16G24   29.71F WCI  12
SHELDON *      CLOUDY    21  19  93 NE18G29   29.74R WCI   6
SIOUX CITY     CLOUDY    27  22  81 N20G28    29.72R WCI  13
SPENCER        CLOUDY    24  19  81 N20       29.73R WCI  10
STORM LAKE *   CLOUDY    30  27  86 N22       29.68S WCI  17
$$

IAZ055>058-069>071-079>083-090>094-190800-
   SOUTHWEST IOWA

CITY           SKY/WX    TMP DP  RH WIND       PRES   REMARKS
ATLANTIC *     CLOUDY    46  41  81 SE8G16    29.64S
AUDUBON *      CLOUDY    45  39  81 CALM      29.66S
CLARINDA *     CLOUDY    48  43  81 E7        29.66F
COUNCIL BLFS * MIX PCPN  34  34 100 N12       29.63F WCI  25
CRESTON *      CLOUDY    45  34  65 SE5       29.68F
HARLAN  *      CLOUDY    37  37 100 N7        29.69R WCI  32
LAMONI         CLOUDY    48  34  58 SE7       29.69F
RED OAK *      CLOUDY    48  41  76 CALM      29.63F
SHENANDOAH *   CLOUDY    48  43  81 SE9       29.62F
$$

IAZ047>049-059>061-072>074-084-190800-
   CENTRAL IOWA

CITY           SKY/WX    TMP DP  RH WIND       PRES   REMARKS
AMES           CLOUDY    38  32  79 CALM      29.70R
ANKENY *       CLOUDY    41  32  70 S6        29.71S
BOONE *        CLOUDY    39  34  81 S6        29.68R WCI  35
CHARITON *     CLOUDY    45  34  65 S9        29.71S
DES MOINES     CLOUDY    44  33  65 SE6       29.70S
GRINNELL*      CLOUDY    40  32  73 S9        29.73S WCI  34
KNOXVILLE *    CLOUDY    46  32  57 S6        29.70F
MARSHALLTOWN   CLOUDY    37  32  82 SE8       29.71S WCI  31
NEWTON *       CLOUDY    43  34  70 S8        29.72S
PELLA *        CLOUDY    45  33  62 S7        29.74S
PERRY *        CLOUDY    38  33  81 E7        29.68S WCI  32
$$

IAZ004>006-015-016-023>025-035-036-190800-
   NORTH CENTRAL IOWA

CITY           SKY/WX    TMP DP  RH WIND       PRES   REMARKS
ALGONA *       CLOUDY    28 N/A N/A N18G25    29.72S WCI  16
CLARION *      CLOUDY    36  36 100 NW8       29.71R WCI  29
ESTHERVILLE    CLOUDY    21  17  84 N21       29.73R WCI   5
FORT DODGE *   CLOUDY    38  31  76 N8        29.70R WCI  32
MASON CITY     CLOUDY    34  30  85 CALM      29.72R
FOREST CITY *  CLOUDY    34  32  93 N9        29.72R WCI  26
WEBSTER CITY * CLOUDY    37  32  81 CALM      29.67R
IOWA FALLS *   CLOUDY    37  33  85 SE10      29.71R WCI  29
$$

IAZ007>011-017>019-026>030-037>042-050>054-066-190800-
   NORTHEAST IOWA

CITY           SKY/WX    TMP DP  RH WIND       PRES   REMARKS
CEDAR RAPIDS   CLOUDY    41  30  65 S9        29.75R
CHARLES CITY * CLOUDY    37  34  87 SE9       29.71R WCI  31
CLINTON *      CLOUDY    38  32  79 MISG        N/A
DECORAH *      CLOUDY    37  30  75 S9        29.72R WCI  31
DUBUQUE        CLOUDY    36  30  79 S12       29.76F WCI  28
MONTICELLO *   CLOUDY    37  32  81 S12       29.76F WCI  30
OELWEIN *      CLOUDY    36  36 100 SE10      29.74R WCI  28
WATERLOO       CLOUDY    37  31  78 SE6       29.72S WCI  32
$$

IAZ064-065-067-068-078-190800-
   EAST CENTRAL IOWA

CITY           SKY/WX    TMP DP  RH WIND       PRES   REMARKS
DAVENPORT      CLOUDY    43  33  68 S16       29.80S
IOWA CITY      CLOUDY    39  30  70 SE3       29.79R
MT. PLEASANT * CLOUDY    41  32  70 S7        29.78F
MUSCATINE *    CLOUDY    39  32  75 S5        29.80R
QUAD CITIES    CLOUDY    43  35  73 S6        29.79S
$$

IAZ062-063-075>077-085>089-095>099-190800-
   SOUTHEAST IOWA

CITY           SKY/WX    TMP DP  RH WIND       PRES   REMARKS
BURLINGTON     CLOUDY    45  34  65 S9        29.79S
FAIRFIELD *    CLOUDY    45  32  61 S8        29.76S
FORT MADISON * CLOUDY    45  36  70 S9        29.80S
KEOKUK *       CLOUDY    48  37  66 S14       29.80R
OSKALOOSA *    CLOUDY    39  33  78 S8        29.74S WCI  33
OTTUMWA        CLOUDY    45  32  60 S9        29.73S
WASHINGTON *   CLOUDY    41  34  75 S9        29.78S
$$

ABBREVIATIONS USED IN REMARKS
   TC - TEMPERATURES IN CELSIUS
  WCI - WIND CHILL INDEX
   HX - HEAT INDEX
  VSB - VISIBILITY
$$




USA.gov is the U.S. government's official web portal to all federal, state and local government web resources and services.